Menoken, ND (58558)

2:53 AM CST on February 07, 2016 (GMT -0600)
Lincoln | | Change Station
CLOSE
Current Station
Personal Weather Station
Location: Lincoln, ND
Elevation: 1670 ft
Nearby Weather Stations
Active Advisory: High Wind Warning

Elev 1670 ft 46.76 °N, 100.71 °W | Updated 2 minutes ago

Clear
Clear
36.0 °F
Feels Like 25 °F
N
20.2
Wind Variable Wind from WSW

Today
High -- | Low -- °F
--% Chance of Precip.
Yesterday
High -- | Low -- °F
Precip. -- in
Pressure 29.82 in
Visibility 10.0 miles
Clouds Clear
Windchill 25 °F
Dew Point 28 °F
Humidity 71%
Rainfall 0.00 in
Snow Depth Not available.
7:59 AM 5:54 PM
Waning Crescent, 2% visible
METAR KBIS 070752Z AUTO 29022G32KT 10SM CLR 04/M05 A2979 RMK AO2 PK WND 28032/0747 SLP096 T00391050
Pressure 29.82 in
Visibility 10.0 miles
Clouds Clear
Windchill 25 °F
Dew Point 28 °F
Humidity 71%
Rainfall 0.00 in
Snow Depth Not available.
7:59 AM 5:54 PM
Waning Crescent, 2% visible
METAR KBIS 070752Z AUTO 29022G32KT 10SM CLR 04/M05 A2979 RMK AO2 PK WND 28032/0747 SLP096 T00391050

10-Day Weather Forecast

Almanac

Astronomy

Feb. 07, 2016 Rise Set
Actual Time
Civil Twilight
Nautical Twilight
Astronomical Twilight
Moon
Length of Visible Light
Length of Day
Tomorrow will be .
, % of the Moon is Illuminated

Today's Extremes

State Highs State Lows

Community

WunderPhotos

Upload Photos

1,891,171 photos uploaded!

WunderBlog® & News

Nearby

Air Quality

  Air Quality AQ Index Pollutant
Not available.

Snow Depth

Station Depth Elevation

Earthquake Activity

City Distance Mag. Time & Date
Minimum magnitude displayed is 2.5.

Coastal Water Temperatures

Place Temperature

Stations

Nearby Weather Stations

Station Location Temp. Windchill Dew Point Humidity Wind Precip. Elev Updated Type
                   

Watches & Warnings

High Wind Warning
Issued: 2:43 AM CST Feb. 7, 2016 – National Weather Service

... High Wind Warning remains in effect until 6 am CST Monday...

* timing... through Sunday night.

* Winds... northwest winds gusting up to 65 mph.

* Impacts... travel will become hazardous over central North
Dakota. Snow and blowing snow may reduce visibilities on Sunday.

Precautionary/preparedness actions...

A High Wind Warning means a hazardous high wind event is expected
or occurring. Sustained wind speeds of at least 40 mph or gusts
of 58 mph or more can lead to property damage.



KS/waa